Regional Weather Roundup
Issued by NWS Charleston, SC

Current Version | Previous Version | Graphics & Text | Print | Product List | Glossary On
Versions: 1 2 3 4 5 6 7 8 9 10 11 12 13 14 15 16 17 18 19 20 21 22 23 24 25 26 27 28 29 30 31 32 33 34 35 36 37 38 39 40 41 42 43 44 45 46 47 48 49 50
208 ASUS42 KCHS 211712 RWRCHS REGIONAL WEATHER ROUNDUP NATIONAL WEATHER SERVICE CHARLESTON SC 100 PM EDT THU MAY 21 2015 NOTE: "FAIR" INDICATES FEW OR NO CLOUDS BELOW 12,000 FEET WITH NO SIGNIFICANT WEATHER AND/OR OBSTRUCTIONS TO VISIBILITY. NOT ALL STATIONS ARE QUALITY CONTROLLED BY THE NATIONAL WEATHER SERVICE. USE DATA WITH CAUTION...ESPECIALLY DEWPOINT OBSERVATIONS. SCZ027-030-031-034>040-042>050-211800- ...SOUTHEAST SOUTH CAROLINA... CITY SKY/WX TMP DP RH WIND PRES REMARKS N CHARLESTON MOSUNNY 87 65 47 SW14G23 29.83F WATERFRONT PAR N/A 85 70 60 SW7 29.82F MOUNT PLEASANT FAIR 88 70 55 SW13 29.83F HX 92 JOHNS ISLAND SUNNY 88 70 55 SW12G21 29.84F HX 92 PINOPOLIS NOT AVBL MONCKS CORNER FAIR 88 66 48 SW12 29.83F HX 90 SUMMERVILLE FAIR 88 68 51 W10G20 29.85S HX 91 BEAUFORT MCAS MOSUNNY 88 65 46 W18G26 29.86F HX 90 BEAUFORT ARPT FAIR 86 68 54 W13G20 29.86F HILTON HEAD IS SUNNY 84 64 51 SW12G18 29.89F WALTERBORO SUNNY 86 64 48 W14G24 29.86S ALLENDALE FAIR 86 64 48 W9G17 29.86F ...SOUTHERN MIDLANDS AND PEE DEE... CITY SKY/WX TMP DP RH WIND PRES REMARKS GEORGETOWN NOT AVBL KINGSTREE NOT AVBL ORANGEBURG PTSUNNY 86 66 51 W15G24 29.85F BARNWELL PTSUNNY 88 64 45 W9G20 29.87S AIKEN FAIR 86 59 39 W15G21 29.91S MANNING PTSUNNY 84 63 48 W8G20 29.83S COLUMBIA PTSUNNY 86 64 47 W13G22 29.84S SUMTER MOSUNNY 85 66 52 W13G20 29.81F FLORENCE MOSUNNY 89 67 47 W12 29.79F HX 92 MYRTLE BEACH MOSUNNY 82 73 74 S12 29.84F N MYRTLE BEACH PTSUNNY 79 73 82 S10 29.82F $$ GAZ063-065-086>088-099>101-113>116-118-119-134>141-150-211800- ...SOUTHEAST GEORGIA... CITY SKY/WX TMP DP RH WIND PRES REMARKS SAVANNAH ARPT MOSUNNY 88 62 41 W17G23 29.89F HUNTER AAF SUNNY 89 65 45 W16 29.87F HX 90 FORT STEWART SUNNY 89 62 39 SW15G21 29.89F STATESBORO SUNNY 86 67 53 W10 29.90F SYLVANIA SUNNY 89 63 41 NW15G21 29.90F HX 90 CLAXTON FAIR 86 66 51 W10G17 29.92S ...CSRA...CENTRAL AND FAR SOUTHEAST GEORGIA... CITY SKY/WX TMP DP RH WIND PRES REMARKS THOMSON SUNNY 85 65 50 W9G16 29.95S AUGUSTA-BUSH SUNNY 87 61 41 W10G20 29.87F AUGUSTA-DANIEL SUNNY 87 62 43 W12G18 29.89F SWAINSBORO FAIR 88 63 42 NW14 29.93F VIDALIA SUNNY 86 63 45 W13 29.94S EASTMAN FAIR 86 64 47 W10G17 29.97F HAZLEHURST FAIR 87 64 46 W7 29.94F ALMA SUNNY 86 64 47 NW12 29.95F WAYCROSS SUNNY 89 66 46 W10G16 29.94F HX 91 JESUP FAIR 90 64 43 NW17 29.93S HX 91 BAXLEY FAIR 88 64 45 NW13 29.94F BRUNSWICK SUNNY 88 61 40 W13 29.93F SAINT SIMONS NOT AVBL $$ SCZ027-028-034-036>038-045-046-048>050-GAZ119-141-211800- ...LAKE AND SUPPLEMENTAL COASTAL OBSERVATIONS... STATION/POSITION TIME TEMP WIND PRES WAVE SWELL AIR SEA DIR/SP/G HT/PER HT/PER/DIR (UTC) (F) (DEG/KT/KT) (MB) (FT/S) (FT/S/D) UPR LAKE MARION NOT AVBL WINYAH BAY 1545 84 220/ 7 1009.0 LAKE MURRAY 1600 79 270/ 14/ 18 1010.2S ACE BASIN NERRS NOT AVBL FORT PULASKI 1600 82 78 280/ 17/ 19 1012.8F SAPELO ISLAND 1600 85 290/ 11 1013.0F $$ ANZ835-935-AMZ111-154-330-350-352-354-370-450-454-472-211800- ...C-MAN AND BUOY OBSERVATIONS... STATION/POSITION TIME TEMP WIND PRES WAVE SWELL AIR SEA DIR/SP/G HT/PER HT/PER/DIR (UTC) (F) (DEG/KT/KT) (MB) (FT/S) (FT/S/D) BUOY 41004 1650 76 76 230/ 16/ 19 1010.3F 3/ 5 2/ 9 BUOY 41008 1650 78 78 240/ 8/ 8 1013.2F 2/ 3 2/120/ 9 FOLLY BEACH CMAN 1600 84 240/ 7/ 10 1011.1F CAPERS NEARSHORE 1608 77 220/ 12/ 16 1011.0F FRIPP NEARSHORE 1600 80 260/ 12/ 14 1011.7F STATION/POSITION TIME TEMP WIND PRES WAVE SWELL AIR SEA DIR/SP/G HT/PER HT/PER/DIR (UTC) (F) (DEG/KT/KT) (MB) (FT/S) (FT/S/D) 5E ST. MARYS GA 1621 78 N/A 1/ 8 FRYING PAN BUOY 1650 79 77 190/ 10/ 12 1011.1F 3/ 4 2/150/ 5 BUOY 41025 1650 74 77 140/ 17/ 21 1011.4F 4/ 5 2/ 70/ 8 CAPE LOOKOUT NC 1600 74 130/ 11/ 12 1011.1F BUOY 41002 1650 75 75 210/ 14/ 16 1014.2F 3/ 5 2/ 60/ 8 BUOY 41010 1620 80 79 250/ 10/ 12 1015.7F ST AUGUSTINE FL 1700 85 72 310/ 9/ 10 1015.0F $$

USA.gov is the U.S. government's official web portal to all federal, state and local government web resources and services.